Weather Roundup
Issued by NWS Springfield, MO

Home | Current Version | Previous Version | Graphics & Text | Print | Product List | Glossary On
Versions: 1 2 3 4 5 6 7 8 9 10 11 12 13 14 15 16 17 18 19 20 21 22 23 24 25 26 27 28 29 30 31 32 33 34 35 36 37 38 39 40 41 42 43 44 45 46 47 48 49 50
000
NZUS99 KSGF 180907
HRRSGF

HOURLY WEATHER
NATIONAL WEATHER SERVICE SPRINGFIELD MO
300 AM CST MON DEC 18 2017

......SGF CWA......

CITY           SKY/WX    TMP DP  RH WIND       PRES   REMARKS
SPRINGFIELD    CLOUDY    45  43  93 W8        30.08R
JOPLIN         CLOUDY    44  44 100 SW8       30.09S
WEST PLAINS    CLOUDY    46  45  96 SW6       30.10R
ROLLA          CLOUDY    44  44 100 W7        30.06F
OSAGE BEACH    CLOUDY    44  43  96 SW5       30.08S

......SURROUNDING SGF CWA......

CITY           SKY/WX    TMP DP  RH WIND       PRES   REMARKS
CHANUTE        CLOUDY    44  43  96 SW10      30.07S
PARSONS        CLOUDY    44  44 100 S6        30.09S
COFFEYVILLE    CLOUDY    44  44 100 S6        30.09S FOG
EMPORIA        CLEAR     37  34  89 W8        30.04R WCI  31
GROVE OK       CLOUDY    45  45 100 S5        30.12R
ROGERS AR      CLOUDY    44  42  93 SW8       30.11S
SILOAM SPRINGS CLOUDY    44  43  96 SW7       30.13R
HARRISON AR    CLOUDY    47  42  83 W7        30.10R
NEAR YELLVILLE CLOUDY    47  46  97 SW3       30.11R

......KANSAS AND MISSOURI......

CITY           SKY/WX    TMP DP  RH WIND       PRES   REMARKS
KANSAS CTY INT CLOUDY    43  41  93 SW8       30.02R
DOWNTOWN KC    CLOUDY    46  40  79 SW8       30.02R
COLUMBIA       CLOUDY    44  42  93 SW8       30.05S
SEDALIA        CLOUDY    45  44  97 SW9       30.06S
ST JOSEPH      MOCLDY    38  38 100 SW3       30.03R FOG
ST LOUIS       CLOUDY    47  42  83 W6        30.06F
SPIRIT OF STL  CLOUDY    46  43  89 W5        30.06F
KIRKSVILLE     CLOUDY    44  44 100 SW8       30.00S
WICHITA        PTCLDY    30  29  96 W6        30.06R FOG     WCI  24
TOPEKA         CLEAR     40  39  97 W5        30.03R
OLATHE         CLOUDY    43  42  97 SW3       30.03R

......TENNESSEE......

CITY           SKY/WX    TMP DP  RH WIND       PRES   REMARKS
MEMPHIS        CLOUDY    45  45 100 SW8       30.16R
NASHVILLE      CLOUDY    47  46  97 S3        30.14F FOG

......ARKANSAS.......

CITY           SKY/WX    TMP DP  RH WIND       PRES   REMARKS
FAYETTEVILLE   CLOUDY    45  43  93 SW6       30.12R
FT SMITH       CLOUDY    47  46  97 W5        30.14S
LITTLE ROCK    CLOUDY    45  45 100 W3        30.17S FOG

......OKLAHOMA.......

CITY           SKY/WX    TMP DP  RH WIND       PRES   REMARKS
TULSA          CLOUDY    45  44  97 S8        30.13S
PONCA CITY     FOG       38  37  97 SW5       30.10R VSB 1/4 WCI  34
MCALESTER      CLOUDY    46  44  93 SW3       30.15R FOG
OKLAHOMA CITY  FOG       40  40 100 SW7       30.13R VSB 1/8

......IOWA............

CITY           SKY/WX    TMP DP  RH WIND       PRES   REMARKS
DES MOINES     CLOUDY    27  24  89 SW7       29.97S FOG     WCI  19
QUAD CITIES    CLOUDY    42  41  96 W9        29.95F

......ILLINOIS........

CITY           SKY/WX    TMP DP  RH WIND       PRES   REMARKS
QUINCY         CLOUDY    45  42  89 SW9       30.01S
CHICAGO        CLOUDY    43  39  86 SW8       29.92F




USA.gov is the U.S. government's official web portal to all federal, state and local government web resources and services.